レモン彗星

C/2012 F6 ( Lemmon )

English version
Home page
Updated on May 4, 2013

---------------------------------------------------------------------

・ プロフィール

発見日 2012年3月23日
発見光度 20.7等
発見者 A. R. Gibbs (Mount Lemmon Survey)

・ 写真集

・ 軌道要素

Epoch 2013 Mar. 9.0 TT = JDT 2456360.5
T 2013 Mar. 24.51384 TT                                 MPC
q   0.7312434            (2000.0)            P               Q
z  +0.0020069      Peri.  304.98762     +0.46127838     +0.76193814
 +/-0.0000016      Node   332.71464     -0.00393722     -0.51061775
e   0.9985325      Incl.   82.60785     -0.88724672     +0.39839652
From 364 observations 2012 Jan. 22-2013 Mar. 6, mean residual 0".4.

・ 星図

・ 光度変化

        m1 = 4.5 + 5 logΔ + 18.0 log r  [   ,-50]  (              〜2013年 2月 2日)
        m1 = 5.2 + 5 logΔ + 10.0 log r  [-50, 50]  (2013年 2月 2日〜2013年 5月13日)
        m1 = 4.5 + 5 logΔ + 18.0 log r  [ 50,   ]  (2013年 5月13日〜              )

        ※ 灰色の曲線は、m1 = 4.5 + 5 logΔ + 18.0 log r の光度曲線です。

---------------------------------------------------------------------

軌道要素はM.P.E.C. 2013-E40に掲載されたものです。
星図はステラナビゲータ Ver.8 (アストロアーツ) で作成したものです。
光度グラフはComet for Windowsで作成したものです。

---------------------------------------------------------------------

Copyright(C) Seiichi Yoshida (comet@aerith.net). All rights reserved.